TimeMDT,TemperatureF,Dew PointF,Humidity,Sea Level PressureIn,VisibilityMPH,Wind Direction,Wind SpeedMPH,Gust SpeedMPH,PrecipitationIn,Events,Conditions,WindDirDegrees,DateUTC
12:53 AM,30.9,16.0,54,30.02,10.0,NW,11.5,-,N/A,,Clear,310,2012-10-18 06:53:00
1:53 AM,33.1,18.0,54,30.02,10.0,WNW,9.2,-,N/A,,Clear,290,2012-10-18 07:53:00
2:53 AM,33.1,18.0,54,30.01,10.0,WNW,10.4,-,N/A,,Clear,290,2012-10-18 08:53:00
3:53 AM,34.0,19.0,54,30.00,10.0,WNW,12.7,-,N/A,,Clear,290,2012-10-18 09:53:00
4:53 AM,34.0,19.0,54,30.02,10.0,WNW,12.7,-,N/A,,Clear,300,2012-10-18 10:53:00
5:53 AM,33.1,19.0,56,30.03,10.0,WNW,13.8,-,N/A,,Clear,290,2012-10-18 11:53:00
6:53 AM,33.1,19.0,56,30.06,10.0,WNW,15.0,-,N/A,,Clear,290,2012-10-18 12:53:00
7:53 AM,35.1,19.0,52,30.06,10.0,WNW,16.1,-,N/A,,Clear,300,2012-10-18 13:53:00
8:53 AM,41.0,19.0,41,30.06,10.0,NW,23.0,31.1,N/A,,Clear,310,2012-10-18 14:53:00
9:53 AM,46.0,16.0,30,30.05,10.0,NW,29.9,41.4,N/A,,Clear,320,2012-10-18 15:53:00
10:53 AM,51.1,15.1,24,30.04,10.0,NW,40.3,47.2,N/A,,Clear,320,2012-10-18 16:53:00
11:53 AM,55.9,14.0,19,30.01,10.0,NW,31.1,44.9,N/A,,Clear,320,2012-10-18 17:53:00
1:53 PM,57.9,10.0,15,29.97,10.0,NNW,34.5,47.2,N/A,,Clear,340,2012-10-18 19:53:00
2:53 PM,59.0,8.1,13,29.97,9.0,NNW,32.2,46.0,N/A,,Clear,330,2012-10-18 20:53:00
3:53 PM,57.9,7.0,13,29.97,10.0,NNW,27.6,39.1,N/A,,Clear,340,2012-10-18 21:53:00
4:53 PM,55.9,7.0,14,29.99,10.0,NNW,23.0,39.1,N/A,,Clear,340,2012-10-18 22:53:00
5:53 PM,52.0,6.1,16,30.01,10.0,NNW,18.4,28.8,N/A,,Clear,340,2012-10-18 23:53:00
6:53 PM,46.9,7.0,20,30.05,10.0,NNW,12.7,-,N/A,,Clear,330,2012-10-19 00:53:00
7:53 PM,44.1,8.1,23,30.06,10.0,NW,10.4,-,N/A,,Clear,310,2012-10-19 01:53:00
8:53 PM,41.0,8.1,26,30.07,10.0,NW,10.4,-,N/A,,Clear,310,2012-10-19 02:53:00
9:53 PM,41.0,10.0,28,30.04,10.0,WNW,15.0,-,N/A,,Clear,300,2012-10-19 03:53:00
10:53 PM,41.0,10.0,28,30.03,10.0,WNW,13.8,-,N/A,,Clear,300,2012-10-19 04:53:00
11:53 PM,37.9,12.0,35,30.02,10.0,WNW,15.0,-,N/A,,Clear,290,2012-10-19 05:53:00